Weather History for Valparaiso, IN

Change the Weather History Date:

Monday, April 22, 2013

  Actual Average Record
Temperature  
Mean Temperature 49 °F 52 °F  
Max Temperature 66 °F 62 °F 82 °F (2007)
Min Temperature 32 °F 41 °F 31 °F (2003)
Degree Days  
Heating Degree Days 16 14  
Month to date heating degree days 425 384  
Since 1 July heating degree days 5794 5961  
Cooling Degree Days 0 0  
Month to date cooling degree days 0 0  
Year to date cooling degree days 0 0  
Moisture  
Dew Point 32 °F    
Average Humidity 51    
Maximum Humidity 89    
Minimum Humidity 26    
Precipitation  
Precipitation 0.00 in 0.10 in 1.05 in (1999)
Month to date precipitation 5.69 2.44  
Year to date precipitation 9.78 8.09  
Sea Level Pressure  
Sea Level Pressure 30.24 in    
Wind  
Wind Speed 7 mph (SE)    
Max Wind Speed 15 mph    
Max Gust Speed 20 mph    
Visibility 10 miles    
Events      
T = Trace of Precipitation, MM = Missing Value Source: NWS Daily Summary

Daily Weather History Graph

Daily Weather History Graph

Search for Another Location

Airport:

Trip Planner

Search our weather history database for the weather conditions in past years. The results will help you decide how hot, cold, wet, or windy it might be!

Date:

Astronomy

Apr. 22, 2013 Rise Set
Actual Time 5:57 AM CDT 7:36 PM CDT
Civil Twilight 5:28 AM CDT 8:05 PM CDT
Nautical Twilight 4:52 AM CDT 8:41 PM CDT
Astronomical Twilight 4:14 AM CDT 9:19 PM CDT
Moon 4:22 PM CDT (4/22) 3:54 AM CDT (4/22)
Length of Visible Light 14h 37m
Length of Day
13h 38m
Waxing Gibbous, 88% of the Moon is Illuminated
Apr 22
Waxing Gibbous
Apr 25
Full
May 2
Last Quarter
May 9
New
May 17
First Quarter

Hourly Weather History & Observations

Time (CDT) Temp. Windchill Dew Point Humidity Pressure Visibility Wind Dir Wind Speed Gust Speed Precip Events Conditions
12:53 AM 41.0 °F 37.1 °F 30.0 °F 65% 30.37 in 10.0 mi ESE 5.8 mph - N/A   Clear
1:53 AM 39.0 °F 34.0 °F 30.0 °F 70% 30.35 in 10.0 mi ESE 6.9 mph - N/A   Clear
2:53 AM 39.0 °F 34.0 °F 30.9 °F 73% 30.34 in 10.0 mi ESE 6.9 mph - N/A   Clear
3:53 AM 36.0 °F 31.1 °F 30.0 °F 79% 30.33 in 10.0 mi ESE 5.8 mph - N/A   Clear
4:53 AM 37.9 °F - 30.9 °F 76% 30.34 in 10.0 mi Calm Calm - N/A   Clear
5:53 AM 34.0 °F 31.0 °F 30.0 °F 85% 30.34 in 10.0 mi East 3.5 mph - N/A   Clear
6:53 AM 35.1 °F 31.0 °F 32.0 °F 89% 30.33 in 8.0 mi East 4.6 mph - N/A   Clear
7:53 AM 42.1 °F 38.4 °F 33.1 °F 70% 30.32 in 10.0 mi ESE 5.8 mph - N/A   Clear
8:53 AM 48.0 °F - 33.1 °F 56% 30.32 in 10.0 mi South 9.2 mph - N/A   Clear
9:53 AM 53.1 °F - 34.0 °F 48% 30.31 in 10.0 mi South 8.1 mph - N/A   Clear
10:53 AM 57.9 °F - 30.9 °F 36% 30.30 in 10.0 mi South 8.1 mph - N/A   Clear
11:53 AM 60.1 °F - 30.9 °F 33% 30.27 in 10.0 mi SE 9.2 mph - N/A   Clear
12:53 PM 62.1 °F - 30.0 °F 30% 30.25 in 10.0 mi SSE 10.4 mph - N/A   Clear
1:53 PM 64.0 °F - 30.9 °F 29% 30.24 in 10.0 mi SSE 10.4 mph - N/A   Clear
2:53 PM 64.9 °F - 28.9 °F 26% 30.20 in 10.0 mi SSE 11.5 mph - N/A   Clear
3:53 PM 64.9 °F - 30.0 °F 27% 30.16 in 10.0 mi ESE 10.4 mph 16.1 mph N/A   Clear
4:53 PM 66.0 °F - 32.0 °F 28% 30.13 in 10.0 mi SE 9.2 mph 19.6 mph N/A   Clear
5:53 PM 64.0 °F - 30.0 °F 28% 30.12 in 10.0 mi SE 10.4 mph 18.4 mph N/A   Clear
6:53 PM 62.1 °F - 33.1 °F 34% 30.11 in 10.0 mi SE 9.2 mph - N/A   Clear
7:53 PM 57.9 °F - 35.1 °F 42% 30.12 in 10.0 mi SE 5.8 mph - N/A   Clear
8:53 PM 55.9 °F - 35.1 °F 45% 30.12 in 10.0 mi ESE 4.6 mph - N/A   Clear
9:53 PM 54.0 °F - 35.1 °F 49% 30.11 in 10.0 mi ESE 6.9 mph - N/A   Clear
10:53 PM 52.0 °F - 35.1 °F 53% 30.10 in 10.0 mi ESE 6.9 mph - N/A   Clear
11:53 PM 52.0 °F - 36.0 °F 54% 30.09 in 10.0 mi SE 5.8 mph - N/A   Clear